Location: Potawatomi Wildlife Park
(41.2308°N, 86.1050°W)
Time: 20:14:01
(UTC-05:00)

Daily predictions for brighter satellites

Satellite Brightness Start Highest point End
(mag) Time Altitude Azimuth Time Altitude Azimuth Time Altitude Azimuth
Meteor 1-28 Rocket 4.1 17:46:26 10° NE 17:49:42 28° E 17:52:57 10° SSE
CORIOLIS 4.5 17:45:05 10° SE 17:50:14 45° ENE 17:55:24 10° N
Cosmos 1140 Rocket 4.1 17:48:50 10° SSW 17:53:59 60° WNW 17:59:09 10° NNE
Cosmos 614 Rocket 4.4 17:48:53 10° SSW 17:54:04 67° WNW 17:59:19 10° NNE
Cosmos 2082 Rocket 4.0 17:59:22 10° NNE 18:00:21 10° NE 18:01:20 10° NE
Cosmos 1408 4.1 17:57:49 10° NNW 18:01:17 40° W 18:04:43 10° SSW
SJ-7 4.4 17:57:12 10° SSE 18:01:22 71° ENE 18:05:31 10° N
OE (NEXTSAT) 4.5 17:58:38 10° WNW 18:02:08 59° NNE 18:05:37 10° E
ALOS 3.6 17:59:49 10° ESE 18:02:56 18° ENE 18:06:05 10° NNE
Cosmos 2061 Rocket 4.2 17:57:44 10° S 18:04:00 84° W 18:10:24 10° N
Cosmos 1733 Rocket 3.6 17:59:57 10° N 18:04:06 38° ENE 18:08:14 10° SE
CZ-4 R/B 1.5 18:01:09 10° SSE 18:04:54 47° ENE 18:08:38 10° N
Cosmos 1725 Rocket 4.1 18:00:00 10° S 18:06:09 59° E 18:12:19 10° NNE
Cosmos 972 Rocket 4.3 18:05:42 10° N 18:10:24 40° ENE 18:15:00 10° SE
Cosmos 1862 Rocket 4.0 18:06:52 10° SSE 18:10:58 39° E 18:15:07 10° NNE
CENTAUR R/B 2.6 18:06:11 10° SSW 18:12:02 64° ESE 18:18:43 10° NE
Lacrosse 5 2.8 18:08:13 10° WSW 18:13:03 43° NW 18:17:53 10° NE
Tsikada Rocket 4.0 18:08:28 10° N 18:14:34 60° E 18:20:38 10° SSE
CSL-04 Rocket 3.8 18:09:20 10° S 18:14:36 77° WSW 18:19:56 10° NNW
SMAP 3.0 18:11:00 10° SSE 18:15:39 88° ENE 18:20:19 10° NNW
BREEZE-M DEB (TANK) 3.8 18:16:31 10° NNW 18:17:48 15° NNE 18:18:34 13° NE
Cosmos 1933 3.3 18:16:51 10° S 18:20:54 84° E 18:24:58 10° N
ERBS 4.0 18:18:39 10° NNW 18:21:05 18° NNE 18:22:07 16° NE
Lacrosse 4 Rocket 4.0 18:18:00 10° NW 18:21:19 24° WSW 18:24:35 10° SSW
COSMOS 2406 3.2 18:17:31 10° NNW 18:23:15 67° ENE 18:28:55 10° SSE
Cosmos 1763 Rocket 4.0 18:23:11 10° N 18:27:59 35° ENE 18:32:41 10° SE
Cosmos 1814 Rocket 4.5 18:23:13 10° N 18:28:15 40° ENE 18:33:16 10° SE
Cosmos 1340 2.6 18:24:43 10° S 18:28:28 86° W 18:32:17 10° N
Meteor 1-26 Rocket 4.3 18:25:18 10° S 18:30:47 57° E 18:36:13 10° NNE
TSX-5 3.8 18:32:11 10° NNW 18:35:33 73° WSW 18:39:35 10° SSE
Cosmos 1437 2.5 18:34:30 10° S 18:37:39 71° E 18:40:44 11° NNE
Cosmos 2208 Rocket 4.4 18:33:38 10° NNW 18:38:48 66° WSW 18:43:59 10° S
NOAA 12 4.4 18:35:17 10° SE 18:40:18 44° ENE 18:45:20 10° N
Cosmos 1844 Rocket 2.9 18:36:21 10° SSW 18:41:59 71° WNW 18:47:38 10° NNE
Ariane Rocket 4.2 18:37:27 10° S 18:42:20 46° W 18:47:13 10° NNW
METEOR-M 4.0 18:37:27 10° SSE 18:42:46 74° ENE 18:48:06 10° N
COSMO-SKYMED 1 2.5 18:39:16 10° NNE 18:43:35 63° E 18:47:53 10° S
Okean 1-7 4.2 18:43:10 10° SE 18:46:02 24° ESE 18:46:02 24° ESE
YAOGAN 1 2.7 18:42:46 10° S 18:47:05 78° WSW 18:51:26 10° NNW
SPOT 3 Rocket 3.6 18:42:08 10° SSE 18:47:15 59° ENE 18:52:23 10° N
ERS-2 2.1 18:43:37 10° SSE 18:47:18 86° W 18:51:00 10° NNW
Cosmos 1486 Rocket 4.3 18:46:39 10° S 18:51:33 44° ESE 18:54:25 23° NE
MONITOR-E 4.0 18:51:39 10° SSE 18:54:41 83° E 18:57:45 10° N
Cosmos 2346 Rocket 4.4 18:49:40 10° N 18:55:48 89° W 19:01:59 10° S
BREEZE-M R/B 3.1 18:53:07 10° NW 18:55:50 39° NNE 18:56:20 37° NE
Cosmos 1844 4.0 18:52:27 10° SSW 18:58:10 70° WNW 19:03:59 10° NNE
Cosmos 371 Rocket 4.5 18:53:40 10° NNW 18:58:14 45° WSW 19:02:48 10° S
Cosmos 841 Rocket 3.7 18:53:50 10° N 18:58:58 49° ENE 19:03:45 12° SE
Cosmos 1464 Rocket 4.3 18:54:15 10° SSE 18:59:54 41° E 19:05:34 10° NNE
Cosmos 1461 4.0 18:55:58 10° NW 19:00:30 52° WSW 19:05:06 10° SSE
Cosmos 2278 Rocket 2.1 19:00:16 10° SSW 19:05:52 67° ESE 19:09:25 23° NNE
Cosmos 1782 3.0 19:03:04 10° SSE 19:06:40 48° ESE 19:06:40 48° ESE
USA 234 3.4 19:02:24 20° NE 19:07:11 71° NW 19:13:41 10° WSW
CZ-4C R/B 4.0 19:02:30 10° NNW 19:07:41 22° NNE 19:08:24 21° NE
Cosmos 1833 Rocket 3.5 19:03:23 10° N 19:07:51 30° NE 19:07:51 30° NE
Cosmos 540 Rocket 4.4 19:04:34 10° N 19:08:03 29° NE 19:08:03 29° NE
Cosmos 1703 Rocket 3.5 19:05:10 10° S 19:09:36 66° E 19:12:02 26° NNE
Cosmos 304 Rocket 3.6 19:05:48 10° NNW 19:10:38 79° ENE 19:15:26 10° SSE
FENGYUN 3A 3.5 19:05:18 10° SSE 19:10:42 79° ENE 19:16:08 10° N
BREEZE-M DEB (TANK) 4.3 19:14:06 10° WNW 19:16:05 27° NNW 19:16:05 27° NNW
Meteor 2-6 Rocket 4.3 19:11:49 10° SSE 19:16:58 48° E 19:17:49 44° ENE
Meteor 1-25 Rocket 4.3 19:11:12 10° N 19:17:06 86° W 19:22:55 10° S
EO 1 Del DPAF 4.3 19:15:05 10° N 19:18:46 46° WNW 19:22:24 10° SW
BREEZE-M DEB (TANK) 4.0 19:15:11 10° WNW 19:21:45 38° SW 19:23:36 22° S
Thor Agena Rocket 3.6 19:24:47 52° ESE 19:24:47 52° ESE 19:29:29 10° S
Cosmos 1606 3.1 19:21:14 10° S 19:24:11 52° S 19:24:11 52° S
COSMOS 2455 3.3 19:21:52 10° SW 19:27:46 60° WNW 19:31:53 20° NNE
Sich 1 Rocket 3.7 19:24:33 10° NNW 19:28:57 72° W 19:33:22 10° S
Meteor 1-20 Rocket 4.3 19:23:47 10° NNW 19:29:23 74° W 19:34:51 10° S
FengYun 1-2 T 4.1 19:27:15 22° SSE 19:30:50 67° ENE 19:36:21 10° N
Cosmos 1908 Rocket 4.4 19:31:24 10° NNW 19:35:36 48° W 19:39:46 10° SSW
Meteor 1-10 Rocket 4.1 19:30:51 10° S 19:36:27 78° E 19:38:51 36° NNE
ALOS 3.2 19:35:29 10° S 19:39:59 48° W 19:44:32 10° NNW
Cosmos 2082 Rocket 2.7 19:40:06 10° NNW 19:44:18 45° NNE 19:44:18 45° NNE
Cosmos 1513 Rocket 4.4 19:40:11 10° S 19:46:32 85° E 19:52:50 10° N
Cosmos 1891 Rocket 4.4 19:50:21 10° S 19:56:35 83° W 20:00:09 27° N
Lacrosse 5 4.0 19:54:05 10° NW 19:57:12 16° NNW 19:57:37 16° N
CENTAUR R/B 4.1 19:57:50 10° W 20:03:16 30° NW 20:06:55 19° N
CZ-3A R/B 4.0 19:53:05 10° NW 20:04:57 62° SW 20:07:23 37° SSE
Cosmos 2034 Rocket 4.1 20:07:01 10° SSW 20:13:22 72° W 20:14:49 54° NNW
Cosmos 2278 Rocket 4.3 20:46:22 10° W 20:50:29 20° NW 20:51:19 20° NW
CZ-4C R/B 4.1 20:50:14 10° NNW 20:53:36 31° NNW 20:53:36 31° NNW
